Time,TemperatureF,DewpointF,PressureIn,WindDirection,WindDirectionDegrees,WindSpeedMPH,WindSpeedGustMPH,Humidity,HourlyPrecipIn,Conditions,Clouds,dailyrainin,SolarRadiationWatts/m^2,SoftwareType,DateUTC
2013-01-23 00:02:00,18.9,2.8,30.32,West,281,1.0,0.0,46,0.00,,,0.00,0.0,meteohub,2013-01-23 05:02:00,
2013-01-23 00:03:00,18.9,3.2,30.32,West,281,0.0,0.0,47,0.00,,,0.00,0.0,meteohub,2013-01-23 05:03:00,
2013-01-23 00:06:00,18.7,3.0,30.32,West,281,0.0,2.0,47,0.00,,,0.00,0.0,meteohub,2013-01-23 05:06:00,
2013-01-23 00:09:00,18.7,3.6,30.32,West,281,0.0,2.0,48,0.00,,,0.00,0.0,meteohub,2013-01-23 05:09:00,
2013-01-23 00:15:00,18.5,3.0,30.32,West,281,0.0,2.0,47,0.00,,,0.00,0.0,meteohub,2013-01-23 05:15:00,
2013-01-23 00:21:00,18.1,3.4,30.32,West,281,0.0,1.0,49,0.00,,,0.00,0.0,meteohub,2013-01-23 05:21:00,
2013-01-23 00:27:00,18.0,4.8,30.32,West,281,0.0,2.0,53,0.00,,,0.00,0.0,meteohub,2013-01-23 05:27:00,
2013-01-23 00:32:00,17.8,4.3,30.32,West,281,0.0,2.0,52,0.00,,,0.00,0.0,meteohub,2013-01-23 05:32:00,
2013-01-23 00:37:00,17.6,4.1,30.32,West,281,0.0,1.0,52,0.00,,,0.00,0.0,meteohub,2013-01-23 05:37:00,
2013-01-23 00:42:00,17.4,3.9,30.31,West,281,0.0,1.0,52,0.00,,,0.00,0.0,meteohub,2013-01-23 05:42:00,
2013-01-23 00:47:00,17.1,4.8,30.32,West,281,0.0,1.0,55,0.00,,,0.00,0.0,meteohub,2013-01-23 05:47:00,
2013-01-23 00:52:00,16.9,5.4,30.32,West,281,0.0,2.0,57,0.00,,,0.00,0.0,meteohub,2013-01-23 05:52:00,
2013-01-23 00:57:00,16.7,4.8,30.32,West,281,0.0,2.0,56,0.00,,,0.00,0.0,meteohub,2013-01-23 05:57:00,
2013-01-23 01:02:00,16.7,5.5,30.32,West,281,0.0,2.0,58,0.00,,,0.00,0.0,meteohub,2013-01-23 06:02:00,
2013-01-23 01:07:00,16.5,5.4,30.32,West,281,0.0,2.0,58,0.00,,,0.00,0.0,meteohub,2013-01-23 06:07:00,
2013-01-23 01:13:00,16.5,5.4,30.32,West,281,0.0,2.0,58,0.00,,,0.00,0.0,meteohub,2013-01-23 06:13:00,
2013-01-23 01:19:00,16.3,5.9,30.32,West,281,2.0,2.0,60,0.00,,,0.00,0.0,meteohub,2013-01-23 06:19:00,
2013-01-23 01:25:00,16.2,6.1,30.32,West,281,1.0,2.0,61,0.00,,,0.00,0.0,meteohub,2013-01-23 06:25:00,
2013-01-23 01:31:00,16.0,6.3,30.32,West,281,0.0,2.0,62,0.00,,,0.00,0.0,meteohub,2013-01-23 06:31:00,
2013-01-23 01:37:00,15.8,6.1,30.33,West,281,0.0,2.0,62,0.00,,,0.00,0.0,meteohub,2013-01-23 06:37:00,
2013-01-23 01:42:00,15.8,6.1,30.32,West,281,0.0,2.0,62,0.00,,,0.00,0.0,meteohub,2013-01-23 06:42:00,
2013-01-23 01:47:00,15.8,6.1,30.32,West,281,0.0,2.0,62,0.00,,,0.00,0.0,meteohub,2013-01-23 06:47:00,
2013-01-23 01:53:00,15.6,5.9,30.32,West,281,0.0,3.0,62,0.00,,,0.00,0.0,meteohub,2013-01-23 06:53:00,
2013-01-23 01:59:00,15.8,6.4,30.32,West,281,0.0,3.0,63,0.00,,,0.00,0.0,meteohub,2013-01-23 06:59:00,
2013-01-23 02:05:00,16.0,7.3,30.33,West,281,1.0,3.0,65,0.00,,,0.00,0.0,meteohub,2013-01-23 07:05:00,
2013-01-23 02:11:00,16.3,7.3,30.33,NNE,32,0.0,4.0,64,0.00,,,0.00,0.0,meteohub,2013-01-23 07:11:00,
2013-01-23 02:17:00,16.5,7.5,30.33,NNE,32,0.0,4.0,64,0.00,,,0.00,0.0,meteohub,2013-01-23 07:17:00,
2013-01-23 02:22:00,16.5,7.2,30.33,NNE,32,0.0,4.0,63,0.00,,,0.00,0.0,meteohub,2013-01-23 07:22:00,
2013-01-23 02:27:00,16.5,7.5,30.34,NNE,32,0.0,1.0,64,0.00,,,0.00,0.0,meteohub,2013-01-23 07:27:00,
2013-01-23 02:32:00,16.2,7.2,30.34,NNE,32,0.0,2.0,64,0.00,,,0.00,0.0,meteohub,2013-01-23 07:32:00,
2013-01-23 02:39:00,16.0,6.6,30.34,NNE,32,0.0,2.0,63,0.00,,,0.00,0.0,meteohub,2013-01-23 07:39:00,
2013-01-23 02:45:00,15.8,6.4,30.34,NNE,32,0.0,2.0,63,0.00,,,0.00,0.0,meteohub,2013-01-23 07:45:00,
2013-01-23 02:51:00,15.8,6.1,30.34,NNE,32,0.0,1.0,62,0.00,,,0.00,0.0,meteohub,2013-01-23 07:51:00,
2013-01-23 02:57:00,15.4,6.1,30.33,NNE,32,0.0,1.0,63,0.00,,,0.00,0.0,meteohub,2013-01-23 07:57:00,
2013-01-23 03:02:00,15.3,6.3,30.33,NNE,32,0.0,1.0,64,0.00,,,0.00,0.0,meteohub,2013-01-23 08:02:00,
2013-01-23 03:07:00,15.1,6.1,30.33,NNE,32,0.0,2.0,64,0.00,,,0.00,0.0,meteohub,2013-01-23 08:07:00,
2013-01-23 03:12:00,14.9,6.3,30.34,NNE,32,0.0,2.0,65,0.00,,,0.00,0.0,meteohub,2013-01-23 08:12:00,
2013-01-23 03:18:00,14.7,6.4,30.34,NNE,32,0.0,0.0,66,0.00,,,0.00,0.0,meteohub,2013-01-23 08:18:00,
2013-01-23 03:24:00,14.5,6.3,30.34,NNE,32,0.0,1.0,66,0.00,,,0.00,0.0,meteohub,2013-01-23 08:24:00,
2013-01-23 03:31:00,14.4,5.4,30.34,NNE,32,0.0,2.0,64,0.00,,,0.00,0.0,meteohub,2013-01-23 08:31:00,
2013-01-23 03:37:00,14.2,5.9,30.34,NNE,32,0.0,2.0,66,0.00,,,0.00,0.0,meteohub,2013-01-23 08:37:00,
2013-01-23 03:42:00,14.0,6.3,30.34,NNE,32,0.0,2.0,68,0.00,,,0.00,0.0,meteohub,2013-01-23 08:42:00,
2013-01-23 03:49:00,13.8,6.1,30.33,NNE,32,0.0,1.0,68,0.00,,,0.00,0.0,meteohub,2013-01-23 08:49:00,
2013-01-23 03:55:00,13.6,5.9,30.33,NNE,32,0.0,2.0,68,0.00,,,0.00,0.0,meteohub,2013-01-23 08:55:00,
2013-01-23 04:01:00,13.5,6.1,30.34,NNE,32,0.0,1.0,69,0.00,,,0.00,0.0,meteohub,2013-01-23 09:01:00,
2013-01-23 04:07:00,13.3,5.9,30.34,NNE,32,0.0,0.0,69,0.00,,,0.00,0.0,meteohub,2013-01-23 09:07:00,
2013-01-23 04:14:00,13.1,5.5,30.34,NNE,32,0.0,0.0,68,0.00,,,0.00,0.0,meteohub,2013-01-23 09:14:00,
2013-01-23 04:20:00,12.9,5.4,30.34,NNE,32,0.0,0.0,68,0.00,,,0.00,0.0,meteohub,2013-01-23 09:20:00,
2013-01-23 04:27:00,12.7,5.4,30.34,NNE,32,0.0,2.0,69,0.00,,,0.00,0.0,meteohub,2013-01-23 09:27:00,
2013-01-23 04:32:00,12.6,5.2,30.34,NNE,32,0.0,2.0,69,0.00,,,0.00,0.0,meteohub,2013-01-23 09:32:00,
2013-01-23 04:38:00,12.6,5.5,30.34,NNE,32,0.0,2.0,70,0.00,,,0.00,0.0,meteohub,2013-01-23 09:38:00,
2013-01-23 04:44:00,12.4,5.0,30.34,NNE,32,0.0,1.0,69,0.00,,,0.00,0.0,meteohub,2013-01-23 09:44:00,
2013-01-23 04:50:00,12.2,4.8,30.34,NNE,32,0.0,1.0,69,0.00,,,0.00,0.0,meteohub,2013-01-23 09:50:00,
2013-01-23 04:57:00,12.2,5.2,30.34,NNE,32,0.0,0.0,70,0.00,,,0.00,0.0,meteohub,2013-01-23 09:57:00,
2013-01-23 05:03:00,12.0,5.0,30.34,NNE,32,0.0,0.0,70,0.00,,,0.00,0.0,meteohub,2013-01-23 10:03:00,
2013-01-23 05:09:00,12.0,5.0,30.34,NNE,32,0.0,0.0,70,0.00,,,0.00,0.0,meteohub,2013-01-23 10:09:00,
2013-01-23 05:15:00,11.8,5.2,30.34,NNE,32,0.0,0.0,71,0.00,,,0.00,0.0,meteohub,2013-01-23 10:15:00,
2013-01-23 05:21:00,11.7,5.0,30.35,NNE,32,0.0,0.0,71,0.00,,,0.00,0.0,meteohub,2013-01-23 10:21:00,
2013-01-23 05:27:00,11.7,5.2,30.35,NNE,32,0.0,1.0,72,0.00,,,0.00,0.0,meteohub,2013-01-23 10:27:00,
2013-01-23 05:32:00,11.7,5.2,30.35,NNE,32,0.0,1.0,72,0.00,,,0.00,0.0,meteohub,2013-01-23 10:32:00,
2013-01-23 05:39:00,11.5,5.4,30.35,NNE,32,2.0,2.0,73,0.00,,,0.00,0.0,meteohub,2013-01-23 10:39:00,
2013-01-23 05:45:00,11.5,5.4,30.35,NNE,32,0.0,2.0,73,0.00,,,0.00,0.0,meteohub,2013-01-23 10:45:00,
2013-01-23 05:52:00,11.3,5.5,30.35,NNE,32,0.0,2.0,74,0.00,,,0.00,0.0,meteohub,2013-01-23 10:52:00,
2013-01-23 05:57:00,11.3,5.7,30.36,NNE,32,0.0,0.0,75,0.00,,,0.00,0.0,meteohub,2013-01-23 10:57:00,
2013-01-23 06:04:00,11.1,5.5,30.35,NNE,32,0.0,0.0,75,0.00,,,0.00,0.0,meteohub,2013-01-23 11:04:00,
2013-01-23 06:10:00,11.1,5.9,30.35,NNE,32,0.0,0.0,76,0.00,,,0.00,0.0,meteohub,2013-01-23 11:10:00,
2013-01-23 06:16:00,10.9,5.7,30.35,NNE,32,1.0,0.0,76,0.00,,,0.00,0.0,meteohub,2013-01-23 11:16:00,
2013-01-23 06:22:00,10.9,5.7,30.35,NNE,32,0.0,2.0,76,0.00,,,0.00,0.0,meteohub,2013-01-23 11:22:00,
2013-01-23 06:27:00,10.8,5.5,30.36,NNE,32,1.0,2.0,76,0.00,,,0.00,0.0,meteohub,2013-01-23 11:27:00,
2013-01-23 06:32:00,10.6,5.4,30.36,NNE,32,0.0,2.0,76,0.00,,,0.00,0.0,meteohub,2013-01-23 11:32:00,
2013-01-23 06:37:00,10.6,5.4,30.37,NNE,32,0.0,2.0,76,0.00,,,0.00,0.0,meteohub,2013-01-23 11:37:00,
2013-01-23 06:43:00,10.4,5.5,30.37,NNE,32,1.0,2.0,77,0.00,,,0.00,0.0,meteohub,2013-01-23 11:43:00,
2013-01-23 06:50:00,10.2,5.4,30.36,NNE,32,0.0,2.0,77,0.00,,,0.00,0.0,meteohub,2013-01-23 11:50:00,
2013-01-23 06:56:00,10.2,5.4,30.37,NNE,32,0.0,2.0,77,0.00,,,0.00,0.0,meteohub,2013-01-23 11:56:00,
2013-01-23 07:02:00,10.0,5.2,30.37,NNE,32,0.0,1.0,77,0.00,,,0.00,0.0,meteohub,2013-01-23 12:02:00,
2013-01-23 07:07:00,9.9,5.0,30.37,NNE,32,0.0,0.0,77,0.00,,,0.00,0.0,meteohub,2013-01-23 12:07:00,
2013-01-23 07:14:00,9.9,5.0,30.37,NNE,32,0.0,0.0,77,0.00,,,0.00,0.0,meteohub,2013-01-23 12:14:00,
2013-01-23 07:20:00,9.9,5.2,30.38,NNE,32,0.0,0.0,78,0.00,,,0.00,0.0,meteohub,2013-01-23 12:20:00,
2013-01-23 07:26:00,9.7,5.0,30.38,NNE,32,0.0,1.0,78,0.00,,,0.00,5.0,meteohub,2013-01-23 12:26:00,
2013-01-23 07:32:00,9.7,5.0,30.38,NNE,32,0.0,1.0,78,0.00,,,0.00,7.0,meteohub,2013-01-23 12:32:00,
2013-01-23 07:37:00,9.7,5.0,30.38,NNE,32,0.0,1.0,78,0.00,,,0.00,11.0,meteohub,2013-01-23 12:37:00,
2013-01-23 07:42:00,9.7,5.0,30.38,NNE,32,0.0,0.0,78,0.00,,,0.00,14.0,meteohub,2013-01-23 12:42:00,
2013-01-23 07:47:00,9.7,5.4,30.38,NNE,32,0.0,2.0,79,0.00,,,0.00,39.0,meteohub,2013-01-23 12:47:00,
2013-01-23 07:52:00,9.9,5.5,30.38,NNE,32,0.0,2.0,79,0.00,,,0.00,54.0,meteohub,2013-01-23 12:52:00,
2013-01-23 07:57:00,10.4,6.1,30.38,NNE,32,0.0,2.0,79,0.00,,,0.00,70.0,meteohub,2013-01-23 12:57:00,
2013-01-23 08:02:00,10.8,6.1,30.38,NNE,32,0.0,1.0,78,0.00,,,0.00,86.0,meteohub,2013-01-23 13:02:00,
2013-01-23 08:07:00,11.5,6.8,30.39,NNE,32,0.0,2.0,78,0.00,,,0.00,102.0,meteohub,2013-01-23 13:07:00,
2013-01-23 08:12:00,12.2,7.2,30.39,NNE,32,0.0,2.0,77,0.00,,,0.00,120.0,meteohub,2013-01-23 13:12:00,
2013-01-23 08:17:00,12.6,7.3,30.38,NNE,32,1.0,2.0,76,0.00,,,0.00,137.0,meteohub,2013-01-23 13:17:00,
2013-01-23 08:22:00,13.1,7.2,30.38,NNE,32,0.0,2.0,74,0.00,,,0.00,156.0,meteohub,2013-01-23 13:22:00,
2013-01-23 08:27:00,13.8,7.9,30.38,NNE,32,0.0,3.0,74,0.00,,,0.00,172.0,meteohub,2013-01-23 13:27:00,
2013-01-23 08:32:00,14.4,8.2,30.38,NNE,32,0.0,3.0,73,0.00,,,0.00,190.0,meteohub,2013-01-23 13:32:00,
2013-01-23 08:37:00,15.1,8.6,30.38,NNE,32,0.0,3.0,72,0.00,,,0.00,209.0,meteohub,2013-01-23 13:37:00,
2013-01-23 08:42:00,15.6,8.8,30.38,NNE,32,0.0,3.0,71,0.00,,,0.00,225.0,meteohub,2013-01-23 13:42:00,
2013-01-23 08:47:00,16.0,8.6,30.38,NNE,32,2.0,3.0,69,0.00,,,0.00,246.0,meteohub,2013-01-23 13:47:00,
2013-01-23 08:52:00,16.3,9.0,30.38,ESE,109,1.0,3.0,69,0.00,,,0.00,264.0,meteohub,2013-01-23 13:52:00,
2013-01-23 08:57:00,16.7,8.2,30.38,ESE,109,0.0,3.0,66,0.00,,,0.00,281.0,meteohub,2013-01-23 13:57:00,
2013-01-23 09:02:00,17.4,9.0,30.38,ESE,109,0.0,3.0,66,0.00,,,0.00,295.0,meteohub,2013-01-23 14:02:00,
2013-01-23 09:07:00,18.3,9.1,30.38,ESE,109,1.0,2.0,64,0.00,,,0.00,318.0,meteohub,2013-01-23 14:07:00,
2013-01-23 09:12:00,18.9,9.0,30.38,ESE,109,2.0,2.0,62,0.00,,,0.00,350.0,meteohub,2013-01-23 14:12:00,
2013-01-23 09:17:00,19.9,10.0,30.38,ESE,109,1.0,3.0,62,0.00,,,0.00,376.0,meteohub,2013-01-23 14:17:00,
2013-01-23 09:22:00,20.5,8.4,30.38,ESE,109,2.0,3.0,56,0.00,,,0.00,390.0,meteohub,2013-01-23 14:22:00,
2013-01-23 09:27:00,21.0,6.6,30.38,ESE,109,0.0,3.0,50,0.00,,,0.00,388.0,meteohub,2013-01-23 14:27:00,
2013-01-23 09:32:00,21.6,6.6,30.38,ESE,109,0.0,3.0,49,0.00,,,0.00,345.0,meteohub,2013-01-23 14:32:00,
2013-01-23 09:37:00,22.3,7.3,30.38,ESE,109,0.0,3.0,49,0.00,,,0.00,373.0,meteohub,2013-01-23 14:37:00,
2013-01-23 09:42:00,22.8,7.3,30.38,SE,128,0.0,2.0,48,0.00,,,0.00,327.0,meteohub,2013-01-23 14:42:00,
2013-01-23 09:47:00,22.8,4.6,30.38,SE,128,1.0,4.0,42,0.00,,,0.00,274.0,meteohub,2013-01-23 14:47:00,
2013-01-23 09:52:00,23.0,4.8,30.38,SE,130,3.0,4.0,42,0.00,,,0.00,186.0,meteohub,2013-01-23 14:52:00,
2013-01-23 09:58:00,23.0,3.7,30.38,SE,130,1.0,4.0,40,0.00,,,0.00,241.0,meteohub,2013-01-23 14:58:00,
2013-01-23 10:04:00,22.8,2.7,30.38,South,175,1.0,4.0,38,0.00,,,0.00,318.0,meteohub,2013-01-23 15:04:00,
2013-01-23 10:11:00,23.0,3.2,30.38,South,175,1.0,6.0,39,0.00,,,0.00,461.0,meteohub,2013-01-23 15:11:00,
2013-01-23 10:17:00,23.4,1.9,30.38,SSW,197,6.0,6.0,36,0.00,,,0.00,469.0,meteohub,2013-01-23 15:17:00,
2013-01-23 10:22:00,23.4,3.6,30.38,SSW,193,1.0,10.0,39,0.00,,,0.00,441.0,meteohub,2013-01-23 15:22:00,
2013-01-23 10:27:00,23.9,4.6,30.38,WNW,298,0.0,10.0,40,0.00,,,0.00,526.0,meteohub,2013-01-23 15:27:00,
2013-01-23 10:32:00,24.1,2.7,30.38,ESE,119,2.0,10.0,36,0.00,,,0.00,515.0,meteohub,2013-01-23 15:32:00,
2013-01-23 10:37:00,24.6,4.3,30.38,South,174,0.0,9.0,38,0.00,,,0.00,538.0,meteohub,2013-01-23 15:37:00,
2013-01-23 10:42:00,25.2,3.0,30.38,WNW,293,6.0,7.0,35,0.00,,,0.00,522.0,meteohub,2013-01-23 15:42:00,
2013-01-23 10:47:00,25.0,2.8,30.37,West,272,1.0,9.0,35,0.00,,,0.00,520.0,meteohub,2013-01-23 15:47:00,
2013-01-23 10:53:00,25.2,3.0,30.38,NW,306,2.0,9.0,35,0.00,,,0.00,541.0,meteohub,2013-01-23 15:53:00,
2013-01-23 10:59:00,25.7,2.5,30.38,West,266,3.0,9.0,33,0.00,,,0.00,543.0,meteohub,2013-01-23 15:59:00,
2013-01-23 11:05:00,25.7,3.0,30.37,WNW,287,0.0,9.0,34,0.00,,,0.00,559.0,meteohub,2013-01-23 16:05:00,
2013-01-23 11:11:00,26.1,2.7,30.36,WSW,258,2.0,9.0,33,0.00,,,0.00,566.0,meteohub,2013-01-23 16:11:00,
2013-01-23 11:17:00,26.4,3.0,30.36,West,264,4.0,9.0,33,0.00,,,0.00,570.0,meteohub,2013-01-23 16:17:00,
2013-01-23 11:22:00,26.8,2.7,30.35,West,273,6.0,11.0,32,0.00,,,0.00,575.0,meteohub,2013-01-23 16:22:00,
2013-01-23 11:27:00,27.0,3.6,30.35,WNW,291,2.0,11.0,33,0.00,,,0.00,580.0,meteohub,2013-01-23 16:27:00,
2013-01-23 11:32:00,27.0,3.6,30.35,West,272,2.0,11.0,33,0.00,,,0.00,587.0,meteohub,2013-01-23 16:32:00,
2013-01-23 11:37:00,27.3,3.2,30.34,WNW,286,2.0,9.0,32,0.00,,,0.00,693.0,meteohub,2013-01-23 16:37:00,
2013-01-23 11:42:00,27.5,2.8,30.34,West,267,2.0,5.0,31,0.00,,,0.00,457.0,meteohub,2013-01-23 16:42:00,
2013-01-23 11:47:00,27.5,2.8,30.33,NW,307,4.0,7.0,31,0.00,,,0.00,371.0,meteohub,2013-01-23 16:47:00,
2013-01-23 11:52:00,27.5,2.8,30.33,West,270,2.0,7.0,31,0.00,,,0.00,422.0,meteohub,2013-01-23 16:52:00,
2013-01-23 11:57:00,27.7,2.3,30.32,West,277,3.0,6.0,30,0.00,,,0.00,631.0,meteohub,2013-01-23 16:57:00,
2013-01-23 12:02:00,28.2,2.8,30.32,WSW,257,4.0,10.0,30,0.00,,,0.00,657.0,meteohub,2013-01-23 17:02:00,
2013-01-23 12:07:00,28.4,2.3,30.32,West,259,3.0,10.0,29,0.00,,,0.00,575.0,meteohub,2013-01-23 17:07:00,
2013-01-23 12:12:00,27.9,0.3,30.31,West,280,2.0,10.0,27,0.00,,,0.00,457.0,meteohub,2013-01-23 17:12:00,
2013-01-23 12:17:00,27.7,1.6,30.31,NW,308,0.0,8.0,29,0.00,,,0.00,622.0,meteohub,2013-01-23 17:17:00,
2013-01-23 12:22:00,28.0,1.2,30.30,West,259,3.0,8.0,28,0.00,,,0.00,601.0,meteohub,2013-01-23 17:22:00,
2013-01-23 12:28:00,28.6,1.8,30.30,West,273,1.0,6.0,28,0.00,,,0.00,598.0,meteohub,2013-01-23 17:28:00,
2013-01-23 12:34:00,28.9,2.1,30.29,NW,326,5.0,6.0,28,0.00,,,0.00,506.0,meteohub,2013-01-23 17:34:00,
2013-01-23 12:40:00,28.9,0.7,30.28,WSW,240,1.0,5.0,26,0.00,,,0.00,584.0,meteohub,2013-01-23 17:40:00,
2013-01-23 12:46:00,29.1,0.0,30.28,West,277,3.0,10.0,25,0.00,,,0.00,582.0,meteohub,2013-01-23 17:46:00,
2013-01-23 12:52:00,29.7,0.5,30.27,West,273,1.0,10.0,25,0.00,,,0.00,592.0,meteohub,2013-01-23 17:52:00,
2013-01-23 12:57:00,30.2,1.0,30.27,West,275,0.0,10.0,25,0.00,,,0.00,585.0,meteohub,2013-01-23 17:57:00,
2013-01-23 13:02:00,30.7,0.7,30.27,NNW,328,4.0,10.0,24,0.00,,,0.00,573.0,meteohub,2013-01-23 18:02:00,
2013-01-23 13:07:00,30.4,0.3,30.27,South,171,6.0,13.0,24,0.00,,,0.00,575.0,meteohub,2013-01-23 18:07:00,
2013-01-23 13:12:00,29.5,-0.4,30.26,SSW,210,2.0,13.0,24,0.00,,,0.00,582.0,meteohub,2013-01-23 18:12:00,
2013-01-23 13:17:00,30.0,0.9,30.26,WNW,296,4.0,13.0,25,0.00,,,0.00,578.0,meteohub,2013-01-23 18:17:00,
2013-01-23 13:22:00,29.7,-0.2,30.26,South,181,5.0,15.0,24,0.00,,,0.00,561.0,meteohub,2013-01-23 18:22:00,
2013-01-23 13:27:00,29.7,-0.2,30.26,SSW,198,1.0,15.0,24,0.00,,,0.00,628.0,meteohub,2013-01-23 18:27:00,
2013-01-23 13:32:00,30.2,1.0,30.25,SSW,210,10.0,15.0,25,0.00,,,0.00,621.0,meteohub,2013-01-23 18:32:00,
2013-01-23 13:37:00,30.2,0.1,30.25,WSW,238,1.0,14.0,24,0.00,,,0.00,629.0,meteohub,2013-01-23 18:37:00,
2013-01-23 13:42:00,29.8,-0.2,30.25,WSW,237,5.0,12.0,24,0.00,,,0.00,564.0,meteohub,2013-01-23 18:42:00,
2013-01-23 13:47:00,29.8,-0.2,30.24,SSE,154,9.0,12.0,24,0.00,,,0.00,578.0,meteohub,2013-01-23 18:47:00,
2013-01-23 13:52:00,30.2,1.0,30.25,WSW,241,5.0,13.0,25,0.00,,,0.00,603.0,meteohub,2013-01-23 18:52:00,
2013-01-23 13:57:00,31.1,1.0,30.25,West,281,3.0,13.0,24,0.00,,,0.00,385.0,meteohub,2013-01-23 18:57:00,
2013-01-23 14:02:00,31.3,0.3,30.24,West,279,7.0,13.0,23,0.00,,,0.00,485.0,meteohub,2013-01-23 19:02:00,
2013-01-23 14:07:00,31.1,1.0,30.24,WNW,297,3.0,11.0,24,0.00,,,0.00,606.0,meteohub,2013-01-23 19:07:00,
2013-01-23 14:12:00,30.9,0.9,30.24,WNW,292,0.0,11.0,24,0.00,,,0.00,548.0,meteohub,2013-01-23 19:12:00,
2013-01-23 14:17:00,31.3,0.3,30.24,South,185,9.0,18.0,23,0.00,,,0.00,330.0,meteohub,2013-01-23 19:17:00,
2013-01-23 14:23:00,31.1,1.0,30.24,WNW,284,10.0,18.0,24,0.00,,,0.00,471.0,meteohub,2013-01-23 19:23:00,
2013-01-23 14:29:00,31.3,1.0,30.24,South,187,3.0,18.0,24,0.00,,,0.00,464.0,meteohub,2013-01-23 19:29:00,
2013-01-23 14:35:00,31.8,0.9,30.23,SSW,210,1.0,16.0,23,0.00,,,0.00,496.0,meteohub,2013-01-23 19:35:00,
2013-01-23 14:42:00,32.5,2.1,30.22,ESE,107,7.0,10.0,24,0.00,,,0.00,485.0,meteohub,2013-01-23 19:42:00,
2013-01-23 14:47:00,32.7,1.6,30.22,South,180,3.0,11.0,23,0.00,,,0.00,376.0,meteohub,2013-01-23 19:47:00,
2013-01-23 14:52:00,32.9,1.8,30.22,West,279,8.0,14.0,23,0.00,,,0.00,396.0,meteohub,2013-01-23 19:52:00,
2013-01-23 14:57:00,33.1,1.9,30.22,West,278,2.0,14.0,23,0.00,,,0.00,339.0,meteohub,2013-01-23 19:57:00,
2013-01-23 15:02:00,33.3,1.9,30.22,NW,311,2.0,14.0,23,0.00,,,0.00,334.0,meteohub,2013-01-23 20:02:00,
2013-01-23 15:07:00,33.3,1.9,30.22,West,270,3.0,12.0,23,0.00,,,0.00,257.0,meteohub,2013-01-23 20:07:00,
2013-01-23 15:12:00,33.1,1.9,30.22,South,171,5.0,11.0,23,0.00,,,0.00,415.0,meteohub,2013-01-23 20:12:00,
2013-01-23 15:17:00,32.7,1.6,30.22,West,277,4.0,11.0,23,0.00,,,0.00,348.0,meteohub,2013-01-23 20:17:00,
2013-01-23 15:22:00,32.7,1.6,30.21,West,280,5.0,11.0,23,0.00,,,0.00,343.0,meteohub,2013-01-23 20:22:00,
2013-01-23 15:27:00,32.7,2.3,30.22,WNW,294,2.0,11.0,24,0.00,,,0.00,364.0,meteohub,2013-01-23 20:27:00,
2013-01-23 15:32:00,33.1,1.9,30.22,South,188,6.0,13.0,23,0.00,,,0.00,323.0,meteohub,2013-01-23 20:32:00,
2013-01-23 15:37:00,32.9,2.5,30.22,WNW,303,6.0,13.0,24,0.00,,,0.00,202.0,meteohub,2013-01-23 20:37:00,
2013-01-23 15:42:00,32.9,2.5,30.21,WNW,299,8.0,13.0,24,0.00,,,0.00,213.0,meteohub,2013-01-23 20:42:00,
2013-01-23 15:47:00,32.9,2.5,30.21,South,173,5.0,12.0,24,0.00,,,0.00,200.0,meteohub,2013-01-23 20:47:00,
2013-01-23 15:52:00,33.1,2.7,30.21,SSW,198,8.0,9.0,24,0.00,,,0.00,218.0,meteohub,2013-01-23 20:52:00,
2013-01-23 15:57:00,32.9,2.5,30.21,SSE,158,3.0,13.0,24,0.00,,,0.00,153.0,meteohub,2013-01-23 20:57:00,
2013-01-23 16:02:00,32.5,2.1,30.21,South,184,3.0,13.0,24,0.00,,,0.00,105.0,meteohub,2013-01-23 21:02:00,
2013-01-23 16:07:00,32.4,1.2,30.21,WSW,257,5.0,13.0,23,0.00,,,0.00,83.0,meteohub,2013-01-23 21:07:00,
2013-01-23 16:13:00,32.2,1.9,30.20,SW,228,1.0,10.0,24,0.00,,,0.00,95.0,meteohub,2013-01-23 21:13:00,
2013-01-23 16:19:00,32.2,1.9,30.20,SW,232,4.0,10.0,24,0.00,,,0.00,86.0,meteohub,2013-01-23 21:19:00,
2013-01-23 16:25:00,32.2,1.9,30.20,East,80,1.0,10.0,24,0.00,,,0.00,83.0,meteohub,2013-01-23 21:25:00,
2013-01-23 16:31:00,32.2,1.9,30.19,South,169,5.0,10.0,24,0.00,,,0.00,72.0,meteohub,2013-01-23 21:31:00,
2013-01-23 16:37:00,32.2,1.9,30.20,SSE,151,3.0,12.0,24,0.00,,,0.00,65.0,meteohub,2013-01-23 21:37:00,
2013-01-23 16:42:00,32.2,2.7,30.20,SSE,152,3.0,12.0,25,0.00,,,0.00,58.0,meteohub,2013-01-23 21:42:00,
2013-01-23 16:47:00,32.2,3.4,30.20,South,190,3.0,10.0,26,0.00,,,0.00,51.0,meteohub,2013-01-23 21:47:00,
2013-01-23 16:52:00,32.4,3.6,30.20,SSE,156,5.0,10.0,26,0.00,,,0.00,40.0,meteohub,2013-01-23 21:52:00,
2013-01-23 16:57:00,32.4,4.3,30.20,WSW,240,2.0,9.0,27,0.00,,,0.00,26.0,meteohub,2013-01-23 21:57:00,
2013-01-23 17:02:00,32.2,3.4,30.19,South,178,8.0,8.0,26,0.00,,,0.00,32.0,meteohub,2013-01-23 22:02:00,
2013-01-23 17:07:00,32.2,3.4,30.19,West,280,1.0,10.0,26,0.00,,,0.00,25.0,meteohub,2013-01-23 22:07:00,
2013-01-23 17:12:00,32.2,3.4,30.19,WNW,290,4.0,10.0,26,0.00,,,0.00,26.0,meteohub,2013-01-23 22:12:00,
2013-01-23 17:17:00,32.2,3.4,30.19,WNW,294,3.0,10.0,26,0.00,,,0.00,19.0,meteohub,2013-01-23 22:17:00,
2013-01-23 17:22:00,32.2,4.1,30.19,WNW,289,2.0,6.0,27,0.00,,,0.00,14.0,meteohub,2013-01-23 22:22:00,
2013-01-23 17:27:00,32.2,4.1,30.19,South,188,1.0,6.0,27,0.00,,,0.00,9.0,meteohub,2013-01-23 22:27:00,
2013-01-23 17:32:00,32.2,4.1,30.19,SSW,195,1.0,6.0,27,0.00,,,0.00,5.0,meteohub,2013-01-23 22:32:00,
2013-01-23 17:37:00,32.2,4.8,30.19,SSW,195,0.0,5.0,28,0.00,,,0.00,0.0,meteohub,2013-01-23 22:37:00,
2013-01-23 17:42:00,32.0,4.6,30.19,SSW,195,0.0,5.0,28,0.00,,,0.00,0.0,meteohub,2013-01-23 22:42:00,
2013-01-23 17:52:00,31.8,4.6,30.19,SSW,194,0.0,2.0,28,0.00,,,0.00,0.0,meteohub,2013-01-23 22:52:00,
2013-01-23 17:57:00,31.6,5.2,30.19,SSW,194,0.0,2.0,29,0.00,,,0.00,0.0,meteohub,2013-01-23 22:57:00,
2013-01-23 18:02:00,31.5,6.3,30.19,SSW,194,0.0,2.0,31,0.00,,,0.00,0.0,meteohub,2013-01-23 23:02:00,
2013-01-23 18:07:00,31.3,4.8,30.19,SSW,194,1.0,1.0,29,0.00,,,0.00,0.0,meteohub,2013-01-23 23:07:00,
2013-01-23 18:12:00,31.3,5.5,30.19,SSW,194,0.0,1.0,30,0.00,,,0.00,0.0,meteohub,2013-01-23 23:12:00,
2013-01-23 18:17:00,31.1,5.9,30.19,SSW,195,1.0,2.0,31,0.00,,,0.00,0.0,meteohub,2013-01-23 23:17:00,
2013-01-23 18:22:00,31.3,8.1,30.19,West,273,0.0,5.0,34,0.00,,,0.00,0.0,meteohub,2013-01-23 23:22:00,
2013-01-23 18:27:00,31.3,5.5,30.19,WNW,288,4.0,5.0,30,0.00,,,0.00,0.0,meteohub,2013-01-23 23:27:00,
2013-01-23 18:32:00,31.5,7.5,30.19,West,279,0.0,4.0,33,0.00,,,0.00,0.0,meteohub,2013-01-23 23:32:00,
2013-01-23 18:37:00,31.3,6.8,30.19,West,279,0.0,4.0,32,0.00,,,0.00,0.0,meteohub,2013-01-23 23:37:00,
2013-01-23 18:42:00,31.1,7.2,30.18,WNW,300,0.0,4.0,33,0.00,,,0.00,0.0,meteohub,2013-01-23 23:42:00,
2013-01-23 18:47:00,31.1,7.9,30.18,WNW,300,0.0,4.0,34,0.00,,,0.00,0.0,meteohub,2013-01-23 23:47:00,
2013-01-23 18:52:00,31.1,9.5,30.17,WNW,300,1.0,4.0,37,0.00,,,0.00,0.0,meteohub,2013-01-23 23:52:00,
2013-01-23 18:57:00,30.9,9.9,30.17,WNW,300,0.0,2.0,38,0.00,,,0.00,0.0,meteohub,2013-01-23 23:57:00,
2013-01-23 19:02:00,30.7,7.0,30.17,WNW,297,0.0,3.0,33,0.00,,,0.00,0.0,meteohub,2013-01-24 00:02:00,
2013-01-23 19:07:00,30.7,9.3,30.17,WNW,297,0.0,3.0,37,0.00,,,0.00,0.0,meteohub,2013-01-24 00:07:00,
2013-01-23 19:12:00,30.6,9.7,30.17,WNW,297,0.0,3.0,38,0.00,,,0.00,0.0,meteohub,2013-01-24 00:12:00,
2013-01-23 19:17:00,30.6,10.8,30.17,WNW,297,0.0,0.0,40,0.00,,,0.00,0.0,meteohub,2013-01-24 00:17:00,
2013-01-23 19:22:00,30.4,9.5,30.17,WNW,297,0.0,0.0,38,0.00,,,0.00,0.0,meteohub,2013-01-24 00:22:00,
2013-01-23 19:27:00,30.4,11.5,30.16,WNW,297,0.0,2.0,42,0.00,,,0.00,0.0,meteohub,2013-01-24 00:27:00,
2013-01-23 19:32:00,30.2,11.3,30.17,WNW,297,0.0,2.0,42,0.00,,,0.00,0.0,meteohub,2013-01-24 00:32:00,
2013-01-23 19:37:00,30.2,10.9,30.17,WNW,297,0.0,2.0,41,0.00,,,0.00,0.0,meteohub,2013-01-24 00:37:00,
2013-01-23 19:42:00,30.2,10.9,30.16,WNW,297,0.0,0.0,41,0.00,,,0.00,0.0,meteohub,2013-01-24 00:42:00,
2013-01-23 19:47:00,30.0,11.3,30.16,WNW,297,1.0,1.0,42,0.00,,,0.00,0.0,meteohub,2013-01-24 00:47:00,
2013-01-23 19:52:00,30.0,11.7,30.16,WNW,297,0.0,1.0,43,0.00,,,0.00,0.0,meteohub,2013-01-24 00:52:00,
2013-01-23 19:57:00,30.0,10.2,30.16,WNW,297,0.0,1.0,40,0.00,,,0.00,0.0,meteohub,2013-01-24 00:57:00,
2013-01-23 20:02:00,30.0,10.2,30.16,WNW,297,0.0,1.0,40,0.00,,,0.00,0.0,meteohub,2013-01-24 01:02:00,
2013-01-23 20:07:00,30.0,11.3,30.16,WNW,297,0.0,0.0,42,0.00,,,0.00,0.0,meteohub,2013-01-24 01:07:00,
2013-01-23 20:12:00,30.0,9.7,30.15,WNW,297,1.0,2.0,39,0.00,,,0.00,0.0,meteohub,2013-01-24 01:12:00,
2013-01-23 20:17:00,30.2,11.8,30.15,WNW,295,0.0,3.0,43,0.00,,,0.00,0.0,meteohub,2013-01-24 01:17:00,
2013-01-23 20:22:00,30.2,10.9,30.15,WNW,295,0.0,3.0,41,0.00,,,0.00,0.0,meteohub,2013-01-24 01:22:00,
2013-01-23 20:27:00,30.2,10.9,30.15,NNW,327,0.0,5.0,41,0.00,,,0.00,0.0,meteohub,2013-01-24 01:27:00,
2013-01-23 20:32:00,30.4,11.5,30.15,West,272,1.0,5.0,42,0.00,,,0.00,0.0,meteohub,2013-01-24 01:32:00,
2013-01-23 20:37:00,31.1,12.7,30.14,NW,316,2.0,5.0,43,0.00,,,0.00,0.0,meteohub,2013-01-24 01:37:00,
2013-01-23 20:43:00,31.6,12.7,30.14,NW,323,1.0,5.0,42,0.00,,,0.00,0.0,meteohub,2013-01-24 01:43:00,
2013-01-23 20:49:00,32.0,12.6,30.14,WNW,289,4.0,5.0,41,0.00,,,0.00,0.0,meteohub,2013-01-24 01:49:00,
2013-01-23 20:55:00,32.2,13.3,30.14,West,281,1.0,5.0,42,0.00,,,0.00,0.0,meteohub,2013-01-24 01:55:00,
2013-01-23 21:01:00,32.2,12.7,30.14,SSW,209,0.0,5.0,41,0.00,,,0.00,0.0,meteohub,2013-01-24 02:01:00,
2013-01-23 21:07:00,32.2,12.7,30.14,SSW,209,1.0,5.0,41,0.00,,,0.00,0.0,meteohub,2013-01-24 02:07:00,
2013-01-23 21:12:00,32.2,13.3,30.14,SSW,209,0.0,5.0,42,0.00,,,0.00,0.0,meteohub,2013-01-24 02:12:00,
2013-01-23 21:17:00,32.2,13.6,30.14,SSW,209,0.0,3.0,43,0.00,,,0.00,0.0,meteohub,2013-01-24 02:17:00,
2013-01-23 21:22:00,32.0,13.5,30.14,SSW,209,0.0,3.0,43,0.00,,,0.00,0.0,meteohub,2013-01-24 02:22:00,
2013-01-23 21:27:00,32.0,14.0,30.15,SSW,209,0.0,3.0,44,0.00,,,0.00,0.0,meteohub,2013-01-24 02:27:00,
2013-01-23 21:32:00,32.0,13.5,30.14,SSW,209,0.0,3.0,43,0.00,,,0.00,0.0,meteohub,2013-01-24 02:32:00,
2013-01-23 21:37:00,31.8,12.9,30.14,SSW,209,0.0,1.0,42,0.00,,,0.00,0.0,meteohub,2013-01-24 02:37:00,
2013-01-23 21:42:00,31.8,12.9,30.13,SSW,209,0.0,2.0,42,0.00,,,0.00,0.0,meteohub,2013-01-24 02:42:00,
2013-01-23 21:47:00,31.8,17.1,30.13,SSW,202,0.0,2.0,51,0.00,,,0.00,0.0,meteohub,2013-01-24 02:47:00,
2013-01-23 21:52:00,31.5,15.4,30.13,SSW,202,0.0,2.0,48,0.00,,,0.00,0.0,meteohub,2013-01-24 02:52:00,
2013-01-23 21:57:00,31.3,15.6,30.13,SSW,202,0.0,2.0,49,0.00,,,0.00,0.0,meteohub,2013-01-24 02:57:00,
2013-01-23 22:02:00,31.3,16.9,30.13,SSW,202,0.0,2.0,52,0.00,,,0.00,0.0,meteohub,2013-01-24 03:02:00,
2013-01-23 22:07:00,31.1,14.5,30.13,South,190,0.0,2.0,47,0.00,,,0.00,0.0,meteohub,2013-01-24 03:07:00,
2013-01-23 22:12:00,31.1,15.4,30.13,South,190,1.0,3.0,49,0.00,,,0.00,0.0,meteohub,2013-01-24 03:12:00,
2013-01-23 22:17:00,31.1,15.4,30.13,South,190,0.0,3.0,49,0.00,,,0.00,0.0,meteohub,2013-01-24 03:17:00,
2013-01-23 22:22:00,31.1,14.5,30.12,South,190,1.0,2.0,47,0.00,,,0.00,0.0,meteohub,2013-01-24 03:22:00,
2013-01-23 22:27:00,31.1,14.5,30.13,South,190,0.0,2.0,47,0.00,,,0.00,0.0,meteohub,2013-01-24 03:27:00,
2013-01-23 22:32:00,31.1,14.5,30.12,South,190,0.0,1.0,47,0.00,,,0.00,0.0,meteohub,2013-01-24 03:32:00,
2013-01-23 22:37:00,31.1,15.1,30.12,South,190,0.0,1.0,48,0.00,,,0.00,0.0,meteohub,2013-01-24 03:37:00,
2013-01-23 22:42:00,31.1,16.3,30.12,South,190,0.0,1.0,51,0.00,,,0.00,0.0,meteohub,2013-01-24 03:42:00,
2013-01-23 22:47:00,30.9,17.1,30.12,South,190,0.0,0.0,53,0.00,,,0.00,0.0,meteohub,2013-01-24 03:47:00,
2013-01-23 22:52:00,30.9,17.8,30.12,South,190,0.0,0.0,55,0.00,,,0.00,0.0,meteohub,2013-01-24 03:52:00,
2013-01-23 22:57:00,30.7,17.2,30.12,South,190,0.0,0.0,54,0.00,,,0.00,0.0,meteohub,2013-01-24 03:57:00,
2013-01-23 23:02:00,30.6,17.1,30.12,South,190,0.0,0.0,54,0.00,,,0.00,0.0,meteohub,2013-01-24 04:02:00,
2013-01-23 23:07:00,30.4,16.2,30.12,South,190,0.0,0.0,52,0.00,,,0.00,0.0,meteohub,2013-01-24 04:07:00,
2013-01-23 23:12:00,30.4,16.2,30.12,South,190,0.0,0.0,52,0.00,,,0.00,0.0,meteohub,2013-01-24 04:12:00,
2013-01-23 23:18:00,30.4,16.9,30.12,South,190,0.0,0.0,54,0.00,,,0.00,0.0,meteohub,2013-01-24 04:18:00,
2013-01-23 23:24:00,30.4,17.4,30.11,South,190,0.0,0.0,55,0.00,,,0.00,0.0,meteohub,2013-01-24 04:24:00,
2013-01-23 23:30:00,30.2,17.6,30.11,South,191,0.0,0.0,56,0.00,,,0.00,0.0,meteohub,2013-01-24 04:30:00,
2013-01-23 23:36:00,30.2,17.2,30.11,ESE,109,2.0,2.0,55,0.00,,,0.00,0.0,meteohub,2013-01-24 04:36:00,
2013-01-23 23:42:00,30.0,13.1,30.11,East,93,5.0,7.0,46,0.00,,,0.00,0.0,meteohub,2013-01-24 04:42:00,
2013-01-23 23:47:00,30.0,11.7,30.11,East,82,1.0,7.0,43,0.00,,,0.00,0.0,meteohub,2013-01-24 04:47:00,
2013-01-23 23:52:00,30.0,11.7,30.11,NE,49,1.0,6.0,43,0.00,,,0.00,0.0,meteohub,2013-01-24 04:52:00,
2013-01-23 23:57:00,29.8,11.5,30.11,NE,49,0.0,6.0,43,0.00,,,0.00,0.0,meteohub,2013-01-24 04:57:00,